Weather History for Mojave, CA

Change the Weather History Date:

Thursday, January 2, 2014

  Actual Average Record
Temperature  
Mean Temperature 50 °F -  
Max Temperature 64 °F 54 °F 66 °F (2001)
Min Temperature 35 °F 30 °F 18 °F (1974)
Degree Days  
Heating Degree Days 16    
Moisture  
Dew Point 20 °F    
Average Humidity 34    
Maximum Humidity 52    
Minimum Humidity 18    
Precipitation  
Precipitation 0.00 in - - ()
Sea Level Pressure  
Sea Level Pressure 30.18 in    
Wind  
Wind Speed 3 mph (NNW)    
Max Wind Speed 9 mph    
Max Gust Speed -    
Visibility 10 miles    
Events      
Averages and records for this station are not official NWS values.
T = Trace of Precipitation, MM = Missing Value Source: NWS Daily Summary

Daily Weather History Graph

Daily Weather History Graph

Search for Another Location

Airport:

Trip Planner

Search our weather history database for the weather conditions in past years. The results will help you decide how hot, cold, wet, or windy it might be!

Date:

Astronomy

Jan. 02, 2014 Rise Set
Actual Time 7:00 AM PST 4:52 PM PST
Civil Twilight 6:32 AM PST 5:20 PM PST
Nautical Twilight 6:01 AM PST 5:52 PM PST
Astronomical Twilight 5:30 AM PST 6:23 PM PST
Moon 7:50 AM PST (1/2) 6:50 PM PST (1/2)
Length of Visible Light 10h 47m
Length of Day
9h 51m
Waxing Crescent, 3% of the Moon is Illuminated
Jan 2
Waxing Crescent
Jan 7
First Quarter
Jan 15
Full
Jan 23
Last Quarter
Jan 30
New

Hourly Weather History & Observations

Time (PST) Temp. Windchill Dew Point Humidity Pressure Visibility Wind Dir Wind Speed Gust Speed Precip Events Conditions
12:15 AM 44.6 °F 43.1 °F 17.6 °F 34% 30.23 in 10.0 mi NNW 3.5 mph - N/A   Clear
12:35 AM 42.8 °F - 17.6 °F 36% 30.23 in 10.0 mi Calm Calm - N/A   Clear
12:55 AM 42.8 °F 41.1 °F 17.6 °F 36% 30.23 in 10.0 mi West 3.5 mph - N/A   Clear
1:15 AM 41.0 °F 37.1 °F 17.6 °F 39% 30.23 in 10.0 mi NW 5.8 mph - N/A   Clear
1:35 AM 39.2 °F 35.0 °F 17.6 °F 42% 30.23 in 10.0 mi NNW 5.8 mph - N/A   Clear
1:55 AM 39.2 °F 34.2 °F 17.6 °F 42% 30.23 in 10.0 mi NNW 6.9 mph - N/A   Clear
2:15 AM 39.2 °F 35.0 °F 17.6 °F 42% 30.23 in 10.0 mi NNW 5.8 mph - N/A   Clear
2:35 AM 41.0 °F 38.0 °F 19.4 °F 42% 30.23 in 10.0 mi NNW 4.6 mph - N/A   Clear
2:55 AM 41.0 °F 38.0 °F 19.4 °F 42% 30.23 in 10.0 mi NNW 4.6 mph - N/A   Clear
3:15 AM 39.2 °F 35.9 °F 19.4 °F 45% 30.22 in 10.0 mi NNW 4.6 mph - N/A   Clear
3:35 AM 39.2 °F 35.9 °F 19.4 °F 45% 30.22 in 10.0 mi North 4.6 mph - N/A   Clear
3:55 AM 41.0 °F 39.0 °F 19.4 °F 42% 30.22 in 10.0 mi NNW 3.5 mph - N/A   Clear
4:15 AM 41.0 °F 38.0 °F 19.4 °F 42% 30.21 in 10.0 mi NW 4.6 mph - N/A   Clear
4:35 AM 41.0 °F - 19.4 °F 42% 30.22 in 10.0 mi Calm Calm - N/A   Clear
4:55 AM 39.2 °F - 19.4 °F 45% 30.21 in 10.0 mi Calm Calm - N/A   Clear
5:15 AM 39.2 °F - 19.4 °F 45% 30.22 in 10.0 mi Calm Calm - N/A   Clear
5:35 AM 37.4 °F - 19.4 °F 48% 30.22 in 10.0 mi Calm Calm - N/A   Clear
5:55 AM 37.4 °F - 19.4 °F 48% 30.21 in 10.0 mi Calm Calm - N/A   Clear
6:15 AM 37.4 °F - 19.4 °F 48% 30.21 in 9.0 mi Calm Calm - N/A   Clear
6:35 AM 35.6 °F - 19.4 °F 52% 30.21 in 7.0 mi Calm Calm - N/A   Clear
6:55 AM 35.6 °F - 19.4 °F 52% 30.21 in 10.0 mi Calm Calm - N/A   Clear
7:15 AM 37.4 °F - 19.4 °F 48% 30.22 in 10.0 mi Calm Calm - N/A   Clear
7:35 AM 37.4 °F - 19.4 °F 48% 30.23 in 10.0 mi Calm Calm - N/A   Clear
7:55 AM 42.8 °F - 21.2 °F 42% 30.23 in 10.0 mi Calm Calm - N/A   Clear
8:15 AM 42.8 °F - 23.0 °F 46% 30.24 in 10.0 mi Calm Calm - N/A   Clear
8:35 AM 46.4 °F - 23.0 °F 40% 30.24 in 10.0 mi Calm Calm - N/A   Clear
8:55 AM 48.2 °F - 19.4 °F 32% 30.25 in 10.0 mi Calm Calm - N/A   Clear
9:15 AM 50.0 °F - 19.4 °F 30% 30.25 in 10.0 mi Calm Calm - N/A   Clear
9:35 AM 50.0 °F - 19.4 °F 30% 30.25 in 10.0 mi Calm Calm - N/A   Clear
9:55 AM 53.6 °F - 19.4 °F 26% 30.25 in 10.0 mi Calm Calm - N/A   Clear
10:15 AM 55.4 °F - 21.2 °F 26% 30.25 in 10.0 mi Calm Calm - N/A   Clear
10:35 AM 57.2 °F - 21.2 °F 25% 30.24 in 10.0 mi NE 4.6 mph - N/A   Clear
10:55 AM 59.0 °F - 19.4 °F 22% 30.23 in 10.0 mi NE 5.8 mph - N/A   Clear
11:15 AM 59.0 °F - 21.2 °F 23% 30.22 in 10.0 mi NE 5.8 mph - N/A   Clear
11:35 AM 60.8 °F - 19.4 °F 20% 30.21 in 10.0 mi ENE 4.6 mph - N/A   Clear
11:55 AM 60.8 °F - 19.4 °F 20% 30.19 in 10.0 mi East 5.8 mph - N/A   Clear
12:15 PM 60.8 °F - 19.4 °F 20% 30.18 in 10.0 mi East 4.6 mph - N/A   Clear
12:35 PM 62.6 °F - 21.2 °F 20% 30.17 in 10.0 mi ENE 4.6 mph - N/A   Clear
12:55 PM 62.6 °F - 19.4 °F 19% 30.16 in 10.0 mi East 4.6 mph - N/A   Clear
1:15 PM 62.6 °F - 19.4 °F 19% 30.15 in 10.0 mi SE 3.5 mph - N/A   Clear
1:35 PM 62.6 °F - 19.4 °F 19% 30.15 in 10.0 mi Calm Calm - N/A   Clear
1:55 PM 62.6 °F - 19.4 °F 19% 30.14 in 10.0 mi Calm Calm - N/A   Clear
2:15 PM 64.4 °F - 19.4 °F 18% 30.13 in 10.0 mi East 5.8 mph - N/A   Clear
2:35 PM 64.4 °F - 21.2 °F 19% 30.13 in 10.0 mi East 4.6 mph - N/A   Clear
2:55 PM 64.4 °F - 21.2 °F 19% 30.13 in 10.0 mi East 3.5 mph - N/A   Clear
3:15 PM 62.6 °F - 21.2 °F 20% 30.13 in 10.0 mi ESE 3.5 mph - N/A   Clear
3:35 PM 62.6 °F - 21.2 °F 20% 30.13 in 10.0 mi ESE 3.5 mph - N/A   Clear
3:55 PM 62.6 °F - 21.2 °F 20% 30.13 in 10.0 mi Calm Calm - N/A   Clear
4:15 PM 62.6 °F - 21.2 °F 20% 30.13 in 10.0 mi Calm Calm - N/A   Clear
4:35 PM 60.8 °F - 19.4 °F 20% 30.13 in 10.0 mi Calm Calm - N/A   Clear
4:55 PM 59.0 °F - 19.4 °F 22% 30.13 in 10.0 mi Calm Calm - N/A   Clear
5:15 PM 55.4 °F - 19.4 °F 25% 30.13 in 10.0 mi Calm Calm - N/A   Clear
5:35 PM 50.0 °F - 19.4 °F 30% 30.13 in 10.0 mi NW 8.1 mph - N/A   Clear
5:55 PM 48.2 °F - 19.4 °F 32% 30.13 in 10.0 mi NNW 8.1 mph - N/A   Clear
6:15 PM 48.2 °F - 19.4 °F 32% 30.13 in 10.0 mi NW 9.2 mph - N/A   Clear
6:35 PM 48.2 °F - 19.4 °F 32% 30.13 in 10.0 mi NW 9.2 mph - N/A   Unknown
6:55 PM 46.4 °F 41.9 °F 19.4 °F 34% 30.13 in 10.0 mi NW 9.2 mph - N/A   Clear
7:15 PM 46.4 °F 41.9 °F 19.4 °F 34% 30.13 in 10.0 mi NW 9.2 mph - N/A   Clear
7:35 PM 46.4 °F 41.9 °F 19.4 °F 34% 30.14 in 10.0 mi NW 9.2 mph - N/A   Clear
7:55 PM 46.4 °F 41.9 °F 19.4 °F 34% 30.14 in 10.0 mi NNW 9.2 mph - N/A   Clear
8:15 PM 46.4 °F 42.4 °F 19.4 °F 34% 30.14 in 10.0 mi NNW 8.1 mph - N/A   Clear
8:35 PM 46.4 °F 42.4 °F 19.4 °F 34% 30.14 in 10.0 mi NNW 8.1 mph - N/A   Clear
8:55 PM 46.4 °F 42.4 °F 19.4 °F 34% 30.14 in 10.0 mi NW 8.1 mph - N/A   Clear
9:15 PM 46.4 °F 41.9 °F 19.4 °F 34% 30.14 in 10.0 mi NNW 9.2 mph - N/A   Clear
9:35 PM 44.6 °F 40.7 °F 19.4 °F 37% 30.14 in 10.0 mi NNW 6.9 mph - N/A   Clear
9:55 PM 44.6 °F 42.2 °F 19.4 °F 37% 30.14 in 10.0 mi NNW 4.6 mph - N/A   Clear
10:15 PM 44.6 °F - 19.4 °F 37% 30.14 in 10.0 mi Calm Calm - N/A   Clear
10:35 PM 44.6 °F 42.2 °F 19.4 °F 37% 30.14 in 10.0 mi WNW 4.6 mph - N/A   Clear
10:55 PM 44.6 °F 42.2 °F 19.4 °F 37% 30.14 in 10.0 mi West 4.6 mph - N/A   Clear
11:15 PM 42.8 °F 40.1 °F 19.4 °F 39% 30.14 in 10.0 mi WNW 4.6 mph - N/A   Clear
11:35 PM 41.0 °F 39.0 °F 19.4 °F 42% 30.13 in 10.0 mi NW 3.5 mph - N/A   Clear
11:55 PM 41.0 °F 35.8 °F 19.4 °F 42% 30.13 in 10.0 mi NW 8.1 mph - N/A   Clear